Change the Weather History Date:

Wednesday, May 7, 2014

  Actual Average Record
Temperature  
Mean Temperature 50 °F -  
Max Temperature 64 °F 65 °F 92 °F (1949)
Min Temperature 37 °F 38 °F 22 °F (1970)
Degree Days  
Heating Degree Days 14    
Moisture  
Dew Point 35 °F    
Average Humidity 54    
Maximum Humidity 79    
Minimum Humidity 36    
Precipitation  
Precipitation 0.00 in - - ()
Sea Level Pressure  
Sea Level Pressure 30.19 in    
Wind  
Wind Speed 6 mph (SE)    
Max Wind Speed 13 mph    
Max Gust Speed -    
Visibility 10 miles    
Events      
Averages and records for this station are not official NWS values.
T = Trace of Precipitation, MM = Missing Value Source: NWS Daily Summary

Daily Weather History Graph

Daily Weather History Graph

Search for Another Location

Airport or City:

Trip Planner

Search our weather history database for the weather conditions in past years. The results will help you decide how hot, cold, wet, or windy it might be!

Date:

Astronomy

May. 07, 2014 Rise Set
Actual Time 5:57 AM EDT 8:17 PM EDT
Civil Twilight 5:26 AM EDT 8:49 PM EDT
Nautical Twilight 4:47 AM EDT 9:28 PM EDT
Astronomical Twilight 4:04 AM EDT 10:11 PM EDT
Moon 1:11 PM EDT 2:05 AM EDT
Length of Visible Light 15h 22m
Length of Day
14h 19m
First Quarter, 55% of the Moon is Illuminated
May 7
First Quarter
May 14
Full
May 21
Last Quarter
May 28
New
Jun 5
First Quarter

Hourly Weather History & Observations

Time (EDT) Temp. Windchill Dew Point Humidity Pressure Visibility Wind Dir Wind Speed Gust Speed Precip Events Conditions
12:54 AM 42.1 °F 40.2 °F 33.1 °F 70% 30.20 in 10.0 mi South 3.5 mph - N/A   Clear
1:54 AM 39.0 °F 34.8 °F 32.0 °F 76% 30.20 in 10.0 mi ESE 5.8 mph - N/A   Clear
2:54 AM 39.0 °F 35.7 °F 32.0 °F 76% 30.19 in 10.0 mi SSE 4.6 mph - N/A   Clear
3:54 AM 39.0 °F 34.0 °F 32.0 °F 76% 30.19 in 10.0 mi Variable 6.9 mph - N/A   Clear
4:54 AM 39.0 °F 34.8 °F 32.0 °F 76% 30.19 in 10.0 mi SE 5.8 mph - N/A   Clear
5:54 AM 37.9 °F 32.7 °F 32.0 °F 79% 30.22 in 10.0 mi SE 6.9 mph - N/A   Clear
6:54 AM 39.0 °F 34.8 °F 33.1 °F 79% 30.24 in 10.0 mi SSE 5.8 mph - N/A   Clear
7:54 AM 43.0 °F 38.8 °F 35.1 °F 74% 30.27 in 10.0 mi ESE 6.9 mph - N/A   Clear
8:54 AM 48.0 °F - 35.1 °F 61% 30.28 in 10.0 mi SSE 3.5 mph - N/A   Clear
9:54 AM 53.1 °F - 36.0 °F 52% 30.27 in 10.0 mi Calm Calm - N/A   Clear
10:54 AM 57.9 °F - 35.1 °F 42% 30.26 in 10.0 mi ESE 12.7 mph - N/A   Clear
11:54 AM 60.1 °F - 35.1 °F 39% 30.24 in 10.0 mi SE 9.2 mph - N/A   Clear
1:54 PM 64.0 °F - 37.0 °F 37% 30.19 in 10.0 mi ESE 11.5 mph - N/A   Clear
2:54 PM 64.9 °F - 37.0 °F 36% 30.18 in 10.0 mi SSE 12.7 mph - N/A   Clear
3:54 PM 64.0 °F - 37.0 °F 37% 30.17 in 10.0 mi SE 10.4 mph - N/A   Clear
4:54 PM 64.0 °F - 37.0 °F 37% 30.15 in 10.0 mi SE 5.8 mph - N/A   Overcast
5:54 PM 63.0 °F - 39.0 °F 41% 30.14 in 10.0 mi ESE 8.1 mph - N/A   Overcast
6:54 PM 63.0 °F - 37.9 °F 40% 30.14 in 10.0 mi ESE 9.2 mph - N/A   Overcast
7:54 PM 62.1 °F - 36.0 °F 38% 30.14 in 10.0 mi SSE 5.8 mph - N/A   Mostly Cloudy
8:54 PM 61.0 °F - 37.0 °F 41% 30.14 in 10.0 mi SE 5.8 mph - N/A   Mostly Cloudy
9:54 PM 59.0 °F - 39.9 °F 49% 30.14 in 10.0 mi SSE 4.6 mph - N/A   Overcast
10:54 PM 57.9 °F - 39.0 °F 49% 30.15 in 10.0 mi SSE 5.8 mph - N/A   Overcast
11:54 PM 59.0 °F - 37.0 °F 44% 30.14 in 10.0 mi South 4.6 mph - 0.00 in   Overcast